timestamp,wind_dir_avg,wind_spd_avg,wind_spd_max_dir,wind_spd_gust,battery_voltage,lat,long
2020-01-10 00:04:01+00:00,342.0,14.97,344.0,17.14,12.57,47.59359,-54.27349
2020-01-10 00:14:01+00:00,332.0,13.23,335.0,15.41,12.57,47.59359,-54.27349
2020-01-10 00:24:01+00:00,339.0,10.98,335.0,12.91,12.57,47.59359,-54.27349
2020-01-10 00:34:01+00:00,349.0,10.48,342.0,11.86,12.57,47.59359,-54.27349
2020-01-10 00:44:01+00:00,342.0,9.8,330.0,12.45,12.57,47.59359,-54.27349
2020-01-10 00:54:01+00:00,340.0,10.34,345.0,12.13,12.57,47.59359,-54.27349
2020-01-10 01:04:01+00:00,337.0,9.38,342.0,11.54,12.57,47.59359,-54.27349
2020-01-10 01:14:01+00:00,337.0,9.21,347.0,11.51,12.49,47.59359,-54.27349
2020-01-10 01:24:01+00:00,343.0,9.24,340.0,11.17,12.49,47.59359,-54.27349
2020-01-10 01:34:01+00:00,334.0,10.55,338.0,12.39,12.49,47.59359,-54.27349
2020-01-10 01:44:01+00:00,344.0,10.19,351.0,12.41,12.49,47.59359,-54.27349
2020-01-10 01:54:01+00:00,346.0,11.71,351.0,14.09,12.49,47.59359,-54.27349
2020-01-10 02:04:01+00:00,334.0,9.38,342.0,11.38,12.49,47.59359,-54.27349
2020-01-10 02:14:01+00:00,340.0,9.73,345.0,11.08,12.49,47.59359,-54.27349
2020-01-10 02:24:01+00:00,343.0,10.94,351.0,12.39,12.49,47.59359,-54.27349
2020-01-10 02:34:01+00:00,342.0,11.94,339.0,13.91,12.49,47.59359,-54.27349
2020-01-10 02:44:01+00:00,335.0,13.78,329.0,15.63,12.49,47.59359,-54.27349
2020-01-10 02:54:01+00:00,341.0,12.73,356.0,17.34,12.49,47.59359,-54.27349
2020-01-10 03:04:01+00:00,345.0,12.21,348.0,14.58,12.49,47.59359,-54.27349
2020-01-10 03:14:01+00:00,345.0,12.36,329.0,14.48,12.49,47.59359,-54.27349
2020-01-10 03:24:01+00:00,345.0,10.21,348.0,11.84,12.49,47.59359,-54.27349
2020-01-10 03:34:01+00:00,346.0,9.86,349.0,11.24,12.49,47.59359,-54.27349
2020-01-10 03:44:01+00:00,341.0,8.87,346.0,10.34,12.49,47.59359,-54.27349
2020-01-10 03:54:01+00:00,346.0,9.43,348.0,11.35,12.49,47.59359,-54.27349
2020-01-10 04:04:01+00:00,350.0,8.64,350.0,10.7,12.49,47.59359,-54.27349
2020-01-10 04:14:01+00:00,348.0,9.21,8.0,10.65,12.41,47.59359,-54.27349
2020-01-10 04:24:01+00:00,340.0,9.51,332.0,10.97,12.41,47.59359,-54.27349
2020-01-10 04:34:01+00:00,349.0,9.3,0.0,11.43,12.41,47.59359,-54.27349
2020-01-10 04:44:01+00:00,343.0,8.43,346.0,9.87,12.41,47.59359,-54.27349
2020-01-10 04:54:01+00:00,344.0,9.29,351.0,11.06,12.41,47.59359,-54.27349
2020-01-10 05:04:01+00:00,335.0,7.81,339.0,9.32,12.41,47.59359,-54.27349
2020-01-10 05:14:01+00:00,350.0,9.0,12.0,12.8,12.41,47.59359,-54.27349
2020-01-10 05:24:01+00:00,340.0,7.4,22.0,9.9,12.41,47.59359,-54.27349
2020-01-10 05:34:01+00:00,337.0,9.09,312.0,13.07,12.41,47.59359,-54.27349
2020-01-10 05:44:01+00:00,335.0,6.96,344.0,8.77,12.41,47.59359,-54.27349
2020-01-10 05:54:01+00:00,340.0,8.64,336.0,12.02,12.41,47.59359,-54.27349
2020-01-10 06:04:01+00:00,341.0,8.7,352.0,11.97,12.41,47.59359,-54.27349
2020-01-10 06:14:01+00:00,349.0,9.17,350.0,10.57,12.41,47.59359,-54.27349
2020-01-10 06:24:01+00:00,335.0,8.66,355.0,11.4,12.41,47.59359,-54.27349
2020-01-10 06:34:01+00:00,340.0,9.99,351.0,13.03,12.41,47.59359,-54.27349
2020-01-10 06:44:01+00:00,322.0,8.24,346.0,10.19,12.41,47.59359,-54.27349
2020-01-10 06:54:01+00:00,318.0,10.13,314.0,12.27,12.41,47.59359,-54.27349
2020-01-10 07:04:01+00:00,337.0,8.95,340.0,12.48,12.41,47.59359,-54.27349
2020-01-10 07:14:01+00:00,318.0,6.5,300.0,9.06,12.33,47.59359,-54.27349
2020-01-10 07:24:01+00:00,338.0,7.29,14.0,10.33,12.33,47.59359,-54.27349
2020-01-10 07:34:01+00:00,307.0,6.87,303.0,8.27,12.33,47.59359,-54.27349
2020-01-10 07:44:01+00:00,316.0,6.82,325.0,8.79,12.33,47.59359,-54.27349
2020-01-10 07:54:01+00:00,309.0,5.82,295.0,7.72,12.33,47.59359,-54.27349
2020-01-10 08:04:01+00:00,334.0,5.57,339.0,7.73,12.33,47.59359,-54.27349
2020-01-10 08:14:01+00:00,326.0,5.87,323.0,8.62,12.33,47.59359,-54.27349
2020-01-10 08:24:01+00:00,341.0,6.13,346.0,8.56,12.33,47.59359,-54.27349
2020-01-10 08:34:01+00:00,328.0,6.36,316.0,7.76,12.33,47.59359,-54.27349
2020-01-10 08:44:01+00:00,344.0,7.16,3.0,8.76,12.33,47.59359,-54.27349
2020-01-10 08:54:01+00:00,330.0,7.99,0.0,10.11,12.33,47.59359,-54.27349
2020-01-10 09:04:01+00:00,340.0,8.87,339.0,10.25,12.33,47.59359,-54.27349
2020-01-10 09:14:01+00:00,343.0,9.38,355.0,12.77,12.25,47.59359,-54.27349
2020-01-10 09:24:01+00:00,333.0,8.25,330.0,9.55,12.25,47.59359,-54.27349
2020-01-10 09:34:01+00:00,311.0,7.13,316.0,9.04,12.25,47.59359,-54.27349
2020-01-10 09:44:01+00:00,279.0,4.46,279.0,6.58,12.25,47.59359,-54.27349
2020-01-10 09:54:01+00:00,274.0,6.39,278.0,8.53,12.25,47.59359,-54.27349
2020-01-10 10:04:01+00:00,311.0,6.03,311.0,8.54,12.25,47.59359,-54.27349
2020-01-10 10:14:01+00:00,290.0,6.26,292.0,7.58,12.25,47.59359,-54.27349
2020-01-10 10:24:01+00:00,314.0,6.84,309.0,8.26,12.25,47.59359,-54.27349
2020-01-10 10:34:01+00:00,306.0,7.08,296.0,8.35,12.25,47.59359,-54.27349
2020-01-10 10:44:01+00:00,329.0,7.35,337.0,8.91,12.25,47.59359,-54.27349
2020-01-10 10:54:01+00:00,313.0,7.18,281.0,9.25,12.25,47.59359,-54.27349
2020-01-10 11:04:01+00:00,313.0,7.24,308.0,8.56,12.25,47.59359,-54.27349
2020-01-10 12:14:01+00:00,311.0,7.77,311.0,9.64,14.0,47.59359,-54.27349
2020-01-10 12:24:01+00:00,314.0,8.06,309.0,10.57,14.0,47.59359,-54.27349
2020-01-10 12:34:01+00:00,321.0,8.31,321.0,10.09,14.0,47.59359,-54.27349
2020-01-10 12:44:01+00:00,319.0,7.17,299.0,8.87,14.0,47.59359,-54.27349
2020-01-10 12:54:01+00:00,309.0,8.74,295.0,11.57,14.0,47.59359,-54.27349
2020-01-10 13:04:01+00:00,312.0,8.97,313.0,11.24,14.0,47.59359,-54.27349
2020-01-10 13:14:01+00:00,294.0,8.22,294.0,9.95,13.84,47.59359,-54.27349
2020-01-10 13:24:01+00:00,296.0,7.24,283.0,8.63,13.84,47.59359,-54.27349
2020-01-10 13:34:01+00:00,310.0,8.1,308.0,9.44,13.84,47.59359,-54.27349
2020-01-10 13:44:01+00:00,311.0,8.55,305.0,10.0,13.84,47.59359,-54.27349
2020-01-10 13:54:01+00:00,294.0,8.29,294.0,10.32,13.84,47.59359,-54.27349
2020-01-10 14:04:01+00:00,303.0,9.69,295.0,12.18,13.84,47.59359,-54.27349
2020-01-10 14:14:01+00:00,304.0,9.49,293.0,11.72,13.76,47.59359,-54.27349
2020-01-10 14:24:01+00:00,296.0,9.72,293.0,12.75,13.76,47.59359,-54.27349
2020-01-10 14:34:01+00:00,308.0,9.23,297.0,12.51,13.76,47.59359,-54.27349
2020-01-10 14:44:01+00:00,310.0,7.33,331.0,9.1,13.76,47.59359,-54.27349
2020-01-10 14:54:01+00:00,312.0,8.69,306.0,10.17,13.76,47.59359,-54.27349
2020-01-10 15:04:01+00:00,316.0,8.44,315.0,10.95,13.76,47.59359,-54.27349
2020-01-10 15:14:01+00:00,307.0,10.37,312.0,12.44,14.32,47.59359,-54.27349
2020-01-10 15:24:01+00:00,321.0,8.13,325.0,9.69,14.32,47.59359,-54.27349
2020-01-10 15:34:01+00:00,317.0,6.92,317.0,8.02,14.32,47.59359,-54.27349
2020-01-10 15:44:01+00:00,306.0,8.32,311.0,9.87,14.32,47.59359,-54.27349
2020-01-10 15:54:01+00:00,316.0,6.78,312.0,8.2,14.32,47.59359,-54.27349
2020-01-10 16:04:01+00:00,314.0,8.89,310.0,11.51,14.32,47.59359,-54.27349
2020-01-10 16:14:01+00:00,312.0,8.28,325.0,10.36,13.76,47.59359,-54.27349
2020-01-10 16:24:01+00:00,322.0,8.86,313.0,10.84,13.76,47.59359,-54.27349
2020-01-10 16:34:01+00:00,300.0,9.01,304.0,11.37,13.76,47.59359,-54.27349
2020-01-10 16:44:01+00:00,305.0,8.24,303.0,9.85,13.76,47.59359,-54.27349
2020-01-10 16:54:01+00:00,299.0,8.44,300.0,10.37,13.76,47.59359,-54.27349
2020-01-10 17:04:01+00:00,313.0,8.82,306.0,10.48,13.76,47.59359,-54.27349
2020-01-10 17:14:01+00:00,304.0,8.47,303.0,10.79,13.84,47.59359,-54.27349
2020-01-10 17:24:01+00:00,291.0,7.26,293.0,8.51,13.84,47.59359,-54.27349
2020-01-10 17:34:01+00:00,308.0,6.95,316.0,8.94,13.84,47.59359,-54.27349
2020-01-10 17:44:01+00:00,294.0,7.83,298.0,9.8,13.84,47.59359,-54.27349
2020-01-10 17:54:01+00:00,285.0,8.17,288.0,9.16,13.84,47.59359,-54.27349
2020-01-10 18:04:01+00:00,302.0,8.46,298.0,10.12,13.84,47.59359,-54.27349
2020-01-10 18:14:01+00:00,294.0,7.06,283.0,8.31,14.08,47.59359,-54.27349
2020-01-10 18:24:01+00:00,297.0,9.67,293.0,10.82,14.08,47.59359,-54.27349
2020-01-10 18:34:01+00:00,298.0,9.85,299.0,11.22,14.08,47.59359,-54.27349
2020-01-10 18:44:01+00:00,300.0,7.91,304.0,9.07,14.08,47.59359,-54.27349
2020-01-10 18:54:01+00:00,289.0,9.08,288.0,11.24,14.08,47.59359,-54.27349
2020-01-10 19:04:01+00:00,286.0,9.15,283.0,10.85,14.08,47.59359,-54.27349
2020-01-10 19:14:01+00:00,279.0,9.45,282.0,11.07,13.37,47.59359,-54.27349
2020-01-10 19:24:01+00:00,288.0,8.3,284.0,10.19,13.37,47.59359,-54.27349
2020-01-10 19:34:01+00:00,298.0,10.13,290.0,11.78,13.37,47.59359,-54.27349
2020-01-10 19:44:01+00:00,295.0,9.14,296.0,10.31,13.37,47.59359,-54.27349
2020-01-10 19:54:01+00:00,293.0,8.7,291.0,10.19,13.37,47.59359,-54.27349
2020-01-10 20:04:01+00:00,298.0,7.85,299.0,9.67,13.37,47.59359,-54.27349
2020-01-10 20:14:01+00:00,294.0,9.0,290.0,10.03,12.81,47.59359,-54.27349
2020-01-10 20:24:01+00:00,297.0,9.58,304.0,11.04,12.81,47.59359,-54.27349
2020-01-10 20:34:01+00:00,299.0,8.22,304.0,9.97,12.81,47.59359,-54.27349
2020-01-10 20:44:01+00:00,298.0,10.56,297.0,11.7,12.81,47.59359,-54.27349
2020-01-10 20:54:01+00:00,287.0,9.17,288.0,10.49,12.81,47.59359,-54.27349
2020-01-10 21:04:01+00:00,282.0,8.74,283.0,10.04,12.81,47.59359,-54.27349
2020-01-10 21:14:01+00:00,287.0,7.38,283.0,8.3,12.65,47.59359,-54.27349
2020-01-10 21:24:01+00:00,289.0,8.39,292.0,9.94,12.65,47.59359,-54.27349
2020-01-10 21:34:01+00:00,296.0,6.78,303.0,8.1,12.65,47.59359,-54.27349
2020-01-10 21:44:01+00:00,291.0,4.74,287.0,5.4,12.65,47.59359,-54.27349
2020-01-10 21:54:01+00:00,294.0,6.18,296.0,7.62,12.65,47.59359,-54.27349
2020-01-10 22:04:01+00:00,294.0,5.41,289.0,6.44,12.65,47.59359,-54.27349
2020-01-10 22:14:01+00:00,293.0,6.31,291.0,7.19,12.57,47.59359,-54.27349
2020-01-10 22:24:01+00:00,282.0,6.37,285.0,7.47,12.57,47.59359,-54.27349
2020-01-10 22:34:01+00:00,286.0,5.77,291.0,7.15,12.57,47.59359,-54.27349
2020-01-10 22:44:01+00:00,289.0,5.22,285.0,6.07,12.57,47.59359,-54.27349
2020-01-10 22:54:01+00:00,293.0,4.92,292.0,5.35,12.57,47.59359,-54.27349
2020-01-10 23:04:01+00:00,266.0,4.7,268.0,5.65,12.57,47.59359,-54.27349
2020-01-10 23:14:01+00:00,259.0,5.13,270.0,5.86,12.57,47.59359,-54.27349
2020-01-10 23:24:01+00:00,238.0,5.71,236.0,6.53,12.57,47.59359,-54.27349
2020-01-10 23:34:01+00:00,231.0,5.87,234.0,7.09,12.57,47.59359,-54.27349
2020-01-10 23:44:01+00:00,236.0,5.46,234.0,6.14,12.57,47.59359,-54.27349
2020-01-10 23:54:01+00:00,235.0,5.97,240.0,6.92,12.57,47.59359,-54.27349
